Location: Newark
(33.6439°N, 114.9881°W)
Time: 04:39:17
(UTC+00:00)

A-11 Canister half - Visible Passes

Search period start: 23 August 2019 00:00
Search period end: 02 September 2019 00:00
Orbit: 1514 x 1686 km, 47.2° (Epoch: 21 August)

Date Brightness Start Highest point End Pass type
(mag) Time Alt. Az. Time Alt. Az. Time Alt. Az.
23 Aug 10.2 04:01:16 10° WNW 04:09:55 37° N 04:18:53 10° ENE visible
23 Aug 9.6 06:07:35 10° NW 06:17:00 49° NNE 06:18:41 45° NE visible
23 Aug 10.2 08:12:41 10° WNW 08:16:49 29° WNW 08:16:49 29° WNW visible
24 Aug 10.2 03:38:13 10° WNW 03:46:52 37° N 03:55:48 10° ENE visible
24 Aug 9.7 05:44:39 10° NW 05:53:58 47° NNE 05:56:19 41° NE visible
24 Aug 10.1 07:49:44 10° NW 07:54:27 34° WNW 07:54:27 34° WNW visible
25 Aug 10.2 03:15:11 10° WNW 03:23:48 37° N 03:32:43 10° ENE visible
25 Aug 9.7 05:21:42 10° NW 05:30:56 46° NNE 05:34:01 37° ENE visible
25 Aug 9.9 07:26:47 10° NW 07:32:10 39° WNW 07:32:10 39° WNW visible
26 Aug 10.2 02:52:08 10° WNW 03:00:44 37° N 03:09:39 10° ENE visible
26 Aug 9.8 04:58:45 10° NW 05:07:54 44° NNE 05:11:48 32° ENE visible
26 Aug 9.7 07:03:51 10° NW 07:09:57 45° WNW 07:09:57 45° WNW visible
27 Aug 10.2 02:29:05 10° WNW 02:37:42 38° N 02:46:36 10° ENE visible
27 Aug 9.8 04:35:48 10° NW 04:44:52 43° NNE 04:49:38 28° ENE visible
27 Aug 9.5 06:40:56 10° NW 06:47:47 52° NW 06:47:47 52° NW visible
28 Aug 9.8 04:12:50 10° NW 04:21:49 42° NNE 04:27:30 23° ENE visible
28 Aug 9.3 06:18:00 10° NW 06:25:40 61° NW 06:25:40 61° NW visible
29 Aug 9.9 03:49:53 10° NW 03:58:46 41° NNE 04:05:26 19° ENE visible
29 Aug 9.1 05:55:04 10° NW 06:03:36 71° NNW 06:03:36 71° NNW visible
29 Aug 11.0 08:00:57 10° WNW 08:01:45 13° WNW 08:01:45 13° WNW visible
30 Aug 9.9 03:26:55 10° NW 03:35:43 40° NNE 03:43:24 15° ENE visible
30 Aug 9.0 05:32:09 10° NW 05:41:34 78° NNE 05:41:34 78° NNE visible
30 Aug 10.8 07:37:52 10° WNW 07:39:44 16° WNW 07:39:44 16° WNW visible
31 Aug 9.9 03:03:56 10° NW 03:12:41 39° NNE 03:21:25 11° ENE visible
31 Aug 8.9 05:09:14 10° NW 05:18:57 75° NE 05:19:35 73° ENE visible
31 Aug 10.6 07:14:49 10° WNW 07:17:45 20° W 07:17:45 20° W visible
01 Sep 10.0 02:40:58 10° NW 02:49:38 38° N 02:58:34 10° ENE visible
01 Sep 9.0 04:46:19 10° NW 04:56:00 72° NNE 04:57:38 62° E visible
01 Sep 10.4 06:51:47 10° WNW 06:55:49 25° W 06:55:49 25° W visible
